| Date | Time | Temp. (oF) | Dew Point (oF) | Rel. Hum. (%) | Press. (in.) | Wind Dir. | Wind Speed (mph) | Hourly Rainfall (in.) |
|
|---|---|---|---|---|---|---|---|---|---|
| 1 | 12/03 | 00:00 | 34 | 21 | 61 | 29.93 | NNW | 4 | 0.00 |
| 2 | 12/02 | 23:00 | 33 | 23 | 68 | 29.90 | NW | 3 | 0.00 |
| 3 | 12/02 | 22:00 | 34 | 24 | 67 | 29.87 | WNW | 3 | 0.00 |
| 4 | 12/02 | 21:00 | 34 | 24 | 67 | 29.85 | NW | 4 | 0.00 |
| 5 | 12/02 | 20:00 | 34 | 24 | 67 | 29.84 | SE | 1 | 0.00 |
| 6 | 12/02 | 19:00 | 34 | 22 | 62 | 29.85 | E | 1 | 0.00 |
| 7 | 12/02 | 18:00 | 35 | 22 | 59 | 29.86 | E | 3 | 0.00 |
| 8 | 12/02 | 17:00 | 36 | 21 | 56 | 29.86 | NE | 2 | 0.00 |
| 9 | 12/02 | 16:00 | 37 | 20 | 50 | 29.87 | ESE | 1 | 0.00 |
| 10 | 12/02 | 15:00 | 38 | 20 | 49 | 29.89 | S | 2 | 0.00 |
| 11 | 12/02 | 14:00 | 37 | 18 | 46 | 29.90 | S | 8 | 0.00 |
| 12 | 12/02 | 13:00 | 38 | 18 | 45 | 29.92 | S | 4 | 0.00 |
| 13 | 12/02 | 12:00 | 38 | 19 | 48 | 29.95 | S | 3 | 0.00 |
| 14 | 12/02 | 11:00 | 37 | 18 | 47 | 29.99 | S | 4 | 0.00 |
| 15 | 12/02 | 10:00 | 34 | 17 | 51 | 30.01 | S | 4 | 0.00 |
| 16 | 12/02 | 09:00 | 32 | 16 | 52 | 30.02 | S | 5 | 0.00 |
| 17 | 12/02 | 08:00 | 30 | 16 | 56 | 30.00 | SSW | 6 | 0.00 |
| 18 | 12/02 | 07:00 | 29 | 16 | 60 | 30.00 | S | 4 | 0.00 |
| 19 | 12/02 | 06:00 | 27 | 15 | 62 | 30.00 | S | 2 | 0.00 |
| 20 | 12/02 | 05:00 | 27 | 15 | 61 | 29.99 | S | 3 | 0.00 |
| 21 | 12/02 | 04:00 | 27 | 14 | 60 | 30.01 | S | 3 | 0.00 |
| 22 | 12/02 | 03:00 | 28 | 14 | 56 | 30.02 | S | 3 | 0.00 |
| 23 | 12/02 | 02:00 | 28 | 14 | 57 | 30.01 | S | 4 | 0.00 |
| 24 | 12/02 | 01:00 | 26 | 14 | 61 | 30.00 | S | 4 | 0.00 |